Flag for Germany Weather past 2 weeks in Rathenow, Brandenburg, Germany

Now
50 °F

Sunny.


Feels Like: 50 °F
Forecast: 43 / 59 °F
Wind: 2 mph from West

Location: Neuruppin

Current Time: Sep 22, 2014 at 8:15:29 AM

Latest Report: Sep 22, 2014 at 7:00 AM


Visibility: 6 mi

Pressure: 29.80 "Hg

Humidity: 87%

Dew point: 46 °F

Location of RathenowLocation

Historic Weather in Rathenow — Graph

°F

Rathenow temperature yesterday

Maximum temperature yesterday: 64 °F (at 3:00 PM)
Minimum temperature yesterday: 55 °F (at 7:00 AM)
Average temperature yesterday: 59 °F

Past Weeks' High & Low Weather Summary

 TemperatureHumidityPressure
High78 °F (Sep 7, 4:00 PM)99% (Sep 21, 8:00 AM)30.19 "Hg (Sep 21, 8:00 AM)
Low50 °F (Sep 22, 7:00 AM)48% (Sep 15, 5:00 PM)29.80 "Hg (Sep 22, 7:00 AM)
Average62 °F82%30.02 "Hg
* Reported Sep 7 7:00 AM — Sep 22 7:00 AM, Rathenow, Weather by CustomWeather, © 2014

Note: Actual official high and low records may vary slightly from our data, if they occured in-between our weather recording intervals... More about our weather records

Advertising

Rathenow weather history for previous 24 hours

 ConditionsComfort  
Time TempWeatherWind HumidityBarometerVisibility
7:00 AM
Sep 22
50 °FSunny.2 mph87%29.80 "Hg6 mi
6:00 AM51 °FPassing clouds.3 mph86%29.81 "Hg6 mi
5:00 AM54 °FOvercast.3 mph84%29.82 "Hg6 mi
4:00 AM54 °FOvercast.2 mph86%29.82 "Hg6 mi
3:00 AM54 °FOvercast.3 mph87%29.83 "Hg6 mi
2:00 AM53 °FPassing clouds.2 mph89%29.84 "Hg6 mi
1:00 AM53 °FOvercast.2 mph90%29.84 "Hg5 mi
12:00 AM52 °FClear.2 mph87%29.85 "Hg6 mi
10:00 PM
Sep 21
56 °FOvercast.2 mph81%29.85 "Hg6 mi
9:00 PM57 °FPassing clouds.2 mph81%29.85 "Hg6 mi
8:00 PM56 °FClear.1 mph90%29.85 "Hg6 mi
7:00 PM58 °FPartly sunny.1 mph89%29.85 "Hg6 mi
6:00 PM60 °FScattered clouds.2 mph87%29.85 "Hg6 mi
5:00 PM58 °FOvercast.3 mph89%29.86 "Hg6 mi
4:00 PM59 °FOvercast.5 mph87%29.86 "Hg1 mi
3:00 PM64 °FOvercast.2 mph78%29.85 "Hg6 mi
2:00 PM63 °FPartly sunny.2 mph79%29.86 "Hg6 mi
1:00 PM62 °FOvercast.3 mph87%29.87 "Hg6 mi
12:00 PM60 °FLow clouds.1 mph94%29.87 "Hg6 mi
10:00 AM58 °FLow clouds.2 mph95%29.87 "Hg3 mi
9:00 AM56 °FCool.2 mph99%29.87 "Hg0 mi
8:00 AM55 °FCool.1 mph99%29.86 "Hg0 mi
Weather by CustomWeather, © 2014

See weather overviewHow to use our weather pages